TOM767 GVAC-GOBD

Flight info

Callsign TOM767
Flight time 1h 10m
Altitude 35000
Route IRPOT1A POLMO DCT LUMPO DCT LIGOV LIGOV1A
Aircraft A321/M-SDE3FGHIRWY/LB1

Departure

Time 2026-04-25 16:59
Airport Amílcar Cabral International Airport (GVAC)

Arrival

Time 2026-04-25 18:09
Airport Blaise Diagne International Airport (GOBD)
Time Latitude Longitude Altitude Speed Heading
2026-04-25 16:25 16.73235 -22.94496 201 ft 0 kts 90°
2026-04-25 16:51 16.73235 -22.94513 212 ft 4 kts 92°
2026-04-25 16:51 16.73236 -22.94531 205 ft 4 kts 96°
2026-04-25 16:52 16.73243 -22.94568 214 ft 4 kts 112°
2026-04-25 16:52 16.73257 -22.94590 211 ft 4 kts 150°
2026-04-25 16:52 16.73269 -22.94595 212 ft 1 kts 179°
2026-04-25 16:52 16.73271 -22.94595 211 ft 0 kts 179°
2026-04-25 16:55 16.73219 -22.94593 200 ft 19 kts 178°
2026-04-25 16:55 16.73095 -22.94600 214 ft 15 kts 199°
2026-04-25 16:55 16.73037 -22.94677 206 ft 13 kts 223°
2026-04-25 16:55 16.72950 -22.94690 193 ft 16 kts 179°
2026-04-25 16:56 16.72830 -22.94689 187 ft 17 kts 180°
2026-04-25 16:56 16.72712 -22.94689 184 ft 17 kts 179°
2026-04-25 16:56 16.72596 -22.94688 185 ft 17 kts 180°
2026-04-25 16:56 16.72476 -22.94685 182 ft 17 kts 178°
2026-04-25 16:57 16.72409 -22.94730 183 ft 8 kts 248°
2026-04-25 16:57 16.72405 -22.94748 184 ft 7 kts 264°
2026-04-25 16:57 16.72406 -22.94843 186 ft 9 kts 276°
2026-04-25 16:57 16.72453 -22.94882 185 ft 12 kts 347°
2026-04-25 16:58 16.72556 -22.94888 186 ft 26 kts
2026-04-25 16:58 16.72973 -22.94890 192 ft 91 kts 360°
2026-04-25 16:58 16.73787 -22.94896 188 ft 141 kts 359°
2026-04-25 16:58 16.74887 -22.94894 351 ft 165 kts 357°
2026-04-25 16:59 16.75997 -22.94897 1071 ft 157 kts
2026-04-25 16:59 16.77101 -22.94907 1656 ft 164 kts
2026-04-25 16:59 16.78313 -22.94916 1867 ft 184 kts
2026-04-25 16:59 16.79664 -22.94927 2028 ft 203 kts
2026-04-25 17:00 16.81137 -22.94938 2165 ft 222 kts
2026-04-25 17:00 16.82718 -22.94950 2577 ft 233 kts
2026-04-25 17:00 16.84393 -22.94963 3074 ft 246 kts
2026-04-25 17:00 16.86070 -22.94615 3719 ft 252 kts 28°
2026-04-25 17:01 16.87312 -22.93283 4257 ft 268 kts 62°
2026-04-25 17:01 16.87769 -22.91354 4731 ft 282 kts 84°
2026-04-25 17:01 16.87759 -22.89280 5204 ft 290 kts 92°
2026-04-25 17:02 16.87427 -22.85204 6202 ft 300 kts 94°
2026-04-25 17:02 16.87289 -22.83015 6750 ft 303 kts 92°
2026-04-25 17:02 16.87210 -22.80811 7306 ft 305 kts 91°
2026-04-25 17:02 16.87185 -22.79341 7682 ft 307 kts 90°
2026-04-25 17:03 16.86943 -22.76353 7920 ft 310 kts 106°
2026-04-25 17:03 16.86121 -22.74312 8189 ft 309 kts 125°
2026-04-25 17:03 16.84898 -22.72468 8796 ft 309 kts 128°
2026-04-25 17:03 16.83657 -22.70631 9390 ft 311 kts 128°
2026-04-25 17:04 16.82405 -22.68779 9977 ft 313 kts 129°
2026-04-25 17:04 16.78541 -22.63067 10474 ft 358 kts 128°
2026-04-25 17:05 16.77106 -22.60943 10806 ft 366 kts 128°
2026-04-25 17:05 16.72556 -22.54203 12266 ft 375 kts 127°
2026-04-25 17:06 16.71046 -22.51968 12741 ft 379 kts 127°
2026-04-25 17:06 16.69523 -22.49711 13219 ft 382 kts 127°
2026-04-25 17:06 16.67990 -22.47432 13708 ft 385 kts 124°
2026-04-25 17:06 16.66760 -22.44945 14110 ft 389 kts 113°
2026-04-25 17:07 16.65714 -22.42337 14560 ft 390 kts 113°
2026-04-25 17:07 16.64668 -22.39705 14977 ft 393 kts 113°
2026-04-25 17:07 16.63623 -22.37063 15387 ft 396 kts 113°
2026-04-25 17:07 16.62570 -22.34397 15815 ft 398 kts 113°
2026-04-25 17:08 16.61514 -22.31722 16202 ft 401 kts 114°
2026-04-25 17:08 16.60450 -22.29029 16598 ft 403 kts 114°
2026-04-25 17:08 16.59378 -22.26321 16982 ft 405 kts 114°
2026-04-25 17:08 16.58301 -22.23598 17356 ft 408 kts 114°
2026-04-25 17:09 16.57218 -22.20857 17714 ft 410 kts 114°
2026-04-25 17:09 16.56124 -22.18099 18069 ft 413 kts 114°
2026-04-25 17:09 16.55024 -22.15329 18392 ft 415 kts 114°
2026-04-25 17:09 16.53918 -22.12546 18687 ft 417 kts 114°
2026-04-25 17:10 16.52816 -22.09782 18977 ft 419 kts 114°
2026-04-25 17:10 16.51694 -22.06967 19245 ft 422 kts 114°
2026-04-25 17:10 16.50566 -22.04137 19519 ft 424 kts 114°
2026-04-25 17:10 16.49436 -22.01295 19789 ft 425 kts 113°
2026-04-25 17:11 16.48302 -21.98443 20048 ft 427 kts 113°
2026-04-25 17:11 16.47163 -21.95576 20300 ft 429 kts 113°
2026-04-25 17:11 16.46018 -21.92701 20551 ft 431 kts 113°
2026-04-25 17:11 16.44865 -21.89817 20803 ft 433 kts 113°
2026-04-25 17:12 16.43703 -21.86918 21043 ft 434 kts 113°
2026-04-25 17:12 16.42542 -21.84011 21295 ft 436 kts 112°
2026-04-25 17:12 16.41374 -21.81085 21537 ft 438 kts 112°
2026-04-25 17:12 16.40203 -21.78148 21769 ft 440 kts 112°
2026-04-25 17:13 16.39028 -21.75200 22009 ft 441 kts 112°
2026-04-25 17:13 16.38248 -21.73242 22169 ft 443 kts 112°
2026-04-25 17:13 16.36664 -21.69268 22493 ft 445 kts 112°
2026-04-25 17:13 16.35471 -21.66290 22736 ft 447 kts 112°
2026-04-25 17:14 16.34269 -21.63298 22976 ft 449 kts 112°
2026-04-25 17:14 16.33059 -21.60293 23232 ft 451 kts 112°
2026-04-25 17:14 16.31848 -21.57279 23460 ft 452 kts 112°
2026-04-25 17:14 16.30632 -21.54250 23673 ft 454 kts 112°
2026-04-25 17:15 16.29409 -21.51211 23876 ft 456 kts 112°
2026-04-25 17:15 16.28186 -21.48163 24063 ft 458 kts 112°
2026-04-25 17:15 16.26968 -21.45134 24279 ft 460 kts 111°
2026-04-25 17:15 16.25734 -21.42063 24480 ft 461 kts 111°
2026-04-25 17:16 16.24480 -21.38937 24718 ft 462 kts 111°
2026-04-25 17:16 16.23240 -21.35842 24931 ft 464 kts 111°
2026-04-25 17:16 16.21991 -21.32740 25136 ft 466 kts 111°
2026-04-25 17:16 16.20733 -21.29626 25335 ft 468 kts 111°
2026-04-25 17:17 16.19471 -21.26503 25536 ft 469 kts 111°
2026-04-25 17:17 16.18203 -21.23362 25750 ft 471 kts 111°
2026-04-25 17:17 16.16934 -21.20213 25932 ft 473 kts 111°
2026-04-25 17:17 16.15658 -21.17047 26124 ft 475 kts 111°
2026-04-25 17:18 16.14396 -21.13914 26310 ft 477 kts 111°
2026-04-25 17:18 16.13115 -21.10728 26506 ft 478 kts 111°
2026-04-25 17:18 16.11827 -21.07526 26697 ft 480 kts 111°
2026-04-25 17:18 16.10513 -21.04277 26901 ft 482 kts 111°
2026-04-25 17:19 16.09209 -21.01064 27085 ft 484 kts 111°
2026-04-25 17:19 16.07901 -20.97838 27344 ft 483 kts 111°
2026-04-25 17:19 16.06611 -20.94664 27623 ft 483 kts 111°
2026-04-25 17:19 16.05304 -20.91447 27888 ft 483 kts 111°
2026-04-25 17:20 16.04001 -20.88232 28147 ft 483 kts 111°
2026-04-25 17:20 16.02695 -20.85013 28397 ft 483 kts 111°
2026-04-25 17:20 16.01386 -20.81796 28643 ft 483 kts 111°
2026-04-25 17:20 16.00080 -20.78574 28888 ft 483 kts 111°
2026-04-25 17:21 15.98777 -20.75357 29188 ft 482 kts 111°
2026-04-25 17:21 15.97474 -20.72148 29461 ft 481 kts 111°
2026-04-25 17:21 15.96171 -20.68939 29715 ft 481 kts 111°
2026-04-25 17:21 15.94870 -20.65737 29956 ft 481 kts 111°
2026-04-25 17:22 15.93566 -20.62528 30162 ft 481 kts 111°
2026-04-25 17:22 15.92702 -20.60408 30297 ft 481 kts 111°
2026-04-25 17:22 15.90959 -20.56130 30583 ft 481 kts 111°
2026-04-25 17:22 15.89656 -20.52933 30799 ft 480 kts 111°
2026-04-25 17:23 15.88358 -20.49742 31011 ft 480 kts 112°
2026-04-25 17:23 15.87060 -20.46551 31233 ft 479 kts 112°
2026-04-25 17:23 15.85762 -20.43366 31434 ft 479 kts 112°
2026-04-25 17:23 15.84461 -20.40181 31652 ft 479 kts 112°
2026-04-25 17:24 15.83177 -20.37046 31869 ft 478 kts 112°
2026-04-25 17:24 15.81877 -20.33869 32075 ft 478 kts 112°
2026-04-25 17:24 15.80579 -20.30688 32287 ft 477 kts 112°
2026-04-25 17:24 15.79284 -20.27522 32499 ft 477 kts 112°
2026-04-25 17:25 15.77989 -20.24351 32706 ft 477 kts 112°
2026-04-25 17:25 15.76693 -20.21184 32926 ft 476 kts 112°
2026-04-25 17:25 15.75399 -20.18024 33116 ft 476 kts 113°
2026-04-25 17:25 15.74103 -20.14867 33329 ft 475 kts 113°
2026-04-25 17:26 15.72808 -20.11714 33532 ft 475 kts 112°
2026-04-25 17:26 15.71519 -20.08569 33796 ft 473 kts 113°
2026-04-25 17:26 15.70226 -20.05425 34000 ft 472 kts 113°
2026-04-25 17:26 15.68939 -20.02297 34181 ft 471 kts 113°
2026-04-25 17:27 15.67660 -19.99174 34359 ft 470 kts 112°
2026-04-25 17:27 15.66448 -19.96022 34527 ft 470 kts 111°
2026-04-25 17:27 15.65307 -19.92848 34694 ft 469 kts 110°
2026-04-25 17:27 15.64947 -19.91814 34750 ft 469 kts 109°
2026-04-25 17:28 15.63122 -19.86473 34909 ft 469 kts 109°
2026-04-25 17:28 15.62041 -19.83328 34902 ft 468 kts 110°
2026-04-25 17:28 15.59811 -19.76988 34898 ft 468 kts 110°
2026-04-25 17:29 15.57533 -19.70663 34900 ft 468 kts 110°
2026-04-25 17:29 15.55253 -19.64345 34892 ft 468 kts 110°
2026-04-25 17:30 15.52986 -19.58021 34901 ft 468 kts 110°
2026-04-25 17:30 15.50718 -19.51692 34889 ft 468 kts 110°
2026-04-25 17:31 15.48444 -19.45366 34894 ft 468 kts 110°
2026-04-25 17:31 15.47301 -19.42193 34571 ft 470 kts 110°
2026-04-25 17:31 15.46048 -19.39130 34328 ft 467 kts 116°
2026-04-25 17:32 15.44593 -19.36121 34103 ft 467 kts 116°
2026-04-25 17:32 15.43138 -19.33106 33876 ft 468 kts 116°
2026-04-25 17:32 15.41686 -19.30088 33622 ft 468 kts 116°
2026-04-25 17:32 15.40229 -19.27068 33363 ft 469 kts 116°
2026-04-25 17:33 15.38751 -19.24008 33105 ft 469 kts 116°
2026-04-25 17:33 15.37313 -19.21027 32881 ft 468 kts 116°
2026-04-25 17:33 15.35864 -19.18018 32617 ft 466 kts 116°
2026-04-25 17:33 15.34419 -19.15020 32368 ft 464 kts 116°
2026-04-25 17:34 15.32977 -19.12030 32121 ft 463 kts 116°
2026-04-25 17:34 15.31538 -19.09056 31879 ft 461 kts 116°
2026-04-25 17:34 15.30101 -19.06093 31634 ft 459 kts 116°
2026-04-25 17:34 15.28672 -19.03141 31393 ft 457 kts 116°
2026-04-25 17:35 15.27251 -19.00204 31166 ft 456 kts 116°
2026-04-25 17:35 15.25834 -18.97272 30931 ft 454 kts 116°
2026-04-25 17:35 15.24420 -18.94354 30696 ft 453 kts 116°
2026-04-25 17:35 15.23012 -18.91452 30466 ft 451 kts 115°
2026-04-25 17:36 15.21606 -18.88554 30239 ft 449 kts 115°
2026-04-25 17:36 15.20205 -18.85662 30013 ft 448 kts 115°
2026-04-25 17:36 15.18811 -18.82785 29761 ft 446 kts 115°
2026-04-25 17:36 15.17420 -18.79916 29477 ft 443 kts 115°
2026-04-25 17:37 15.16041 -18.77081 29214 ft 438 kts 115°
2026-04-25 17:37 15.14684 -18.74283 28951 ft 432 kts 115°
2026-04-25 17:37 15.13340 -18.71514 28690 ft 429 kts 116°
2026-04-25 17:37 15.12019 -18.68803 28431 ft 426 kts 116°
2026-04-25 17:38 15.10686 -18.66075 28176 ft 424 kts 116°
2026-04-25 17:38 15.10237 -18.65155 28093 ft 423 kts 116°
2026-04-25 17:38 15.08046 -18.60653 27691 ft 420 kts 116°
2026-04-25 17:38 15.06739 -18.57964 27432 ft 417 kts 116°
2026-04-25 17:39 15.05440 -18.55286 27184 ft 415 kts 116°
2026-04-25 17:39 15.04146 -18.52624 26941 ft 413 kts 116°
2026-04-25 17:39 15.02854 -18.49973 26700 ft 411 kts 116°
2026-04-25 17:39 15.01568 -18.47343 26459 ft 409 kts 116°
2026-04-25 17:40 15.00286 -18.44719 26220 ft 407 kts 116°
2026-04-25 17:40 14.99014 -18.42110 25987 ft 405 kts 116°
2026-04-25 17:40 14.97750 -18.39516 25758 ft 403 kts 116°
2026-04-25 17:40 14.96492 -18.36933 25525 ft 401 kts 116°
2026-04-25 17:41 14.95240 -18.34368 25295 ft 399 kts 116°
2026-04-25 17:41 14.93992 -18.31813 25068 ft 397 kts 116°
2026-04-25 17:41 14.92750 -18.29267 24837 ft 395 kts 116°
2026-04-25 17:41 14.91514 -18.26738 24615 ft 393 kts 116°
2026-04-25 17:42 14.90697 -18.25068 24480 ft 392 kts 116°
2026-04-25 17:42 14.89470 -18.22559 24251 ft 390 kts 116°
2026-04-25 17:42 14.88248 -18.20059 24019 ft 388 kts 116°
2026-04-25 17:42 14.87029 -18.17574 23805 ft 387 kts 116°
2026-04-25 17:43 14.85424 -18.14300 23512 ft 384 kts 116°
2026-04-25 17:43 14.84611 -18.12640 23350 ft 382 kts 116°
2026-04-25 17:43 14.83412 -18.10194 23091 ft 382 kts 116°
2026-04-25 17:43 14.82214 -18.07754 22832 ft 381 kts 117°
2026-04-25 17:44 14.81016 -18.05313 22579 ft 380 kts 117°
2026-04-25 17:44 14.79826 -18.02886 22298 ft 378 kts 117°
2026-04-25 17:44 14.78640 -18.00465 21893 ft 376 kts 117°
2026-04-25 17:44 14.77466 -17.98066 21475 ft 373 kts 117°
2026-04-25 17:45 14.76296 -17.95678 21062 ft 371 kts 117°
2026-04-25 17:45 14.75525 -17.94109 20784 ft 370 kts 117°
2026-04-25 17:45 14.73983 -17.90947 20219 ft 367 kts 116°
2026-04-25 17:45 14.72903 -17.88568 19801 ft 365 kts 115°
2026-04-25 17:46 14.71893 -17.86215 19543 ft 363 kts 114°
2026-04-25 17:46 14.70889 -17.83825 19273 ft 363 kts 114°
2026-04-25 17:46 14.69891 -17.81439 18863 ft 361 kts 114°
2026-04-25 17:46 14.68891 -17.79069 18421 ft 360 kts 115°
2026-04-25 17:47 14.67886 -17.76704 17949 ft 359 kts 115°
2026-04-25 17:47 14.66879 -17.74352 17494 ft 356 kts 115°
2026-04-25 17:47 14.65877 -17.72024 17051 ft 354 kts 115°
2026-04-25 17:47 14.64883 -17.69717 16619 ft 350 kts 115°
2026-04-25 17:48 14.62913 -17.65154 15774 ft 345 kts 116°
2026-04-25 17:48 14.61941 -17.62903 15365 ft 342 kts 116°
2026-04-25 17:48 14.60973 -17.60664 14954 ft 340 kts 116°
2026-04-25 17:49 14.60019 -17.58453 14632 ft 334 kts 116°
2026-04-25 17:49 14.59070 -17.56256 14137 ft 336 kts 116°
2026-04-25 17:49 14.58123 -17.54061 13727 ft 334 kts 116°
2026-04-25 17:49 14.57178 -17.51877 13280 ft 332 kts 117°
2026-04-25 17:50 14.56241 -17.49715 12864 ft 329 kts 117°
2026-04-25 17:50 14.55314 -17.47571 12451 ft 325 kts 117°
2026-04-25 17:50 14.54398 -17.45450 12047 ft 322 kts 116°
2026-04-25 17:50 14.53489 -17.43348 11643 ft 319 kts 116°
2026-04-25 17:51 14.52583 -17.41262 11235 ft 317 kts 115°
2026-04-25 17:51 14.51686 -17.39195 10822 ft 314 kts 115°
2026-04-25 17:51 14.50796 -17.37143 10419 ft 312 kts 115°
2026-04-25 17:51 14.49935 -17.35149 10077 ft 294 kts 116°
2026-04-25 17:52 14.49114 -17.33249 9997 ft 289 kts 115°
2026-04-25 17:52 14.48572 -17.32000 9910 ft 287 kts 115°
2026-04-25 17:52 14.47480 -17.29483 9526 ft 289 kts 115°
2026-04-25 17:52 14.46668 -17.27615 9036 ft 283 kts 115°
2026-04-25 17:53 14.45861 -17.25759 8599 ft 284 kts 114°
2026-04-25 17:53 14.45055 -17.23905 8153 ft 283 kts 114°
2026-04-25 17:53 14.44258 -17.22071 7520 ft 286 kts 114°
2026-04-25 17:53 14.43426 -17.20154 6409 ft 299 kts 112°
2026-04-25 17:54 14.42598 -17.18255 5998 ft 281 kts 113°
2026-04-25 17:54 14.41821 -17.16484 5723 ft 263 kts 111°
2026-04-25 17:54 14.41080 -17.14787 5280 ft 254 kts 111°
2026-04-25 17:54 14.40375 -17.13163 4878 ft 245 kts 111°
2026-04-25 17:55 14.39688 -17.11571 4376 ft 240 kts 109°
2026-04-25 17:55 14.39410 -17.09926 3977 ft 229 kts 77°
2026-04-25 17:55 14.39904 -17.08414 3657 ft 220 kts 50°
2026-04-25 17:55 14.41011 -17.07384 3305 ft 216 kts 24°
2026-04-25 17:56 14.42468 -17.06991 2907 ft 216 kts 359°
2026-04-25 17:56 14.43936 -17.06927 2984 ft 210 kts 12°
2026-04-25 17:56 14.45268 -17.06298 3136 ft 214 kts 37°
2026-04-25 17:56 14.46186 -17.05076 3172 ft 221 kts 66°
2026-04-25 17:57 14.46511 -17.03513 3279 ft 227 kts 86°
2026-04-25 17:57 14.46175 -17.01908 3179 ft 233 kts 116°
2026-04-25 17:57 14.45128 -17.00628 3073 ft 238 kts 139°
2026-04-25 17:57 14.44242 -16.99959 3028 ft 239 kts 143°
2026-04-25 17:58 14.42389 -16.98689 3001 ft 239 kts 144°
2026-04-25 17:58 14.40997 -16.97757 2994 ft 238 kts 144°
2026-04-25 17:58 14.39600 -16.96820 2992 ft 241 kts 144°
2026-04-25 17:58 14.38195 -16.95875 2991 ft 241 kts 144°
2026-04-25 17:59 14.36798 -16.94929 2989 ft 239 kts 144°
2026-04-25 17:59 14.35406 -16.93986 2987 ft 240 kts 144°
2026-04-25 17:59 14.33993 -16.93076 2985 ft 239 kts 154°
2026-04-25 17:59 14.32375 -16.92790 2984 ft 240 kts 188°
2026-04-25 18:00 14.30841 -16.93423 2992 ft 240 kts 222°
2026-04-25 18:00 14.29847 -16.94764 2995 ft 235 kts 249°
2026-04-25 18:00 14.29239 -16.96319 2987 ft 235 kts 253°
2026-04-25 18:00 14.28687 -16.97913 2991 ft 235 kts 256°
2026-04-25 18:01 14.28575 -16.99565 2994 ft 238 kts 287°
2026-04-25 18:01 14.29338 -17.01060 2994 ft 238 kts 317°
2026-04-25 18:01 14.30560 -17.02214 2983 ft 239 kts 323°
2026-04-25 18:01 14.31867 -17.03276 2985 ft 239 kts 328°
2026-04-25 18:02 14.33267 -17.04193 2989 ft 239 kts 330°
2026-04-25 18:02 14.34681 -17.05092 2999 ft 238 kts 331°
2026-04-25 18:02 14.36077 -17.05975 2996 ft 235 kts 330°
2026-04-25 18:02 14.37531 -17.06735 2997 ft 233 kts 343°
2026-04-25 18:03 14.39127 -17.07033 3000 ft 235 kts 358°
2026-04-25 18:03 14.40763 -17.07054 2998 ft 234 kts
2026-04-25 18:03 14.42392 -17.07054 3022 ft 234 kts 360°
2026-04-25 18:03 14.44021 -17.07065 3001 ft 231 kts 360°
2026-04-25 18:04 14.45582 -17.07080 2992 ft 221 kts
2026-04-25 18:04 14.47067 -17.07094 2990 ft 207 kts 359°
2026-04-25 18:04 14.48468 -17.07108 3008 ft 193 kts
2026-04-25 18:04 14.49775 -17.07120 3006 ft 186 kts
2026-04-25 18:05 14.51044 -17.07132 2947 ft 184 kts
2026-04-25 18:05 14.52257 -17.07143 2748 ft 160 kts
2026-04-25 18:05 14.53315 -17.07153 2565 ft 148 kts 359°
2026-04-25 18:05 14.54311 -17.07166 2360 ft 140 kts
2026-04-25 18:06 14.55294 -17.07186 2125 ft 140 kts
2026-04-25 18:06 14.56260 -17.07207 1976 ft 139 kts
2026-04-25 18:06 14.57221 -17.07216 1802 ft 137 kts
2026-04-25 18:06 14.58176 -17.07224 1678 ft 140 kts
2026-04-25 18:07 14.59137 -17.07239 1597 ft 138 kts
2026-04-25 18:07 14.60096 -17.07249 1367 ft 138 kts
2026-04-25 18:07 14.61039 -17.07248 1152 ft 137 kts
2026-04-25 18:07 14.61991 -17.07221 998 ft 137 kts
2026-04-25 18:08 14.62925 -17.07213 871 ft 133 kts 360°
2026-04-25 18:08 14.63855 -17.07250 697 ft 136 kts
2026-04-25 18:08 14.64792 -17.07254 472 ft 137 kts
2026-04-25 18:08 14.65748 -17.07259 356 ft 132 kts 356°
2026-04-25 18:09 14.66628 -17.07279 298 ft 111 kts 359°
2026-04-25 18:09 14.67109 -17.07283 298 ft 37 kts 359°
2026-04-25 18:09 14.67357 -17.07288 293 ft 35 kts 360°
2026-04-25 18:09 14.67440 -17.07288 295 ft 36 kts
2026-04-25 18:10 14.67785 -17.07198 285 ft 21 kts 28°
2026-04-25 18:10 14.67850 -17.07160 283 ft 0 kts 31°
2026-04-25 18:10 14.67851 -17.07159 283 ft 0 kts 37°
2026-04-25 18:11 14.67851 -17.07157 283 ft 1 kts 53°
2026-04-25 18:11 14.67855 -17.07135 284 ft 4 kts 89°
2026-04-25 18:11 14.67847 -17.07119 284 ft 1 kts 133°
2026-04-25 18:12 14.67827 -17.07108 285 ft 8 kts 161°
2026-04-25 18:12 14.67779 -17.07099 287 ft 6 kts 175°
2026-04-25 18:12 14.67736 -17.07097 288 ft 8 kts 179°
2026-04-25 18:12 14.67633 -17.07095 290 ft 17 kts 180°
2026-04-25 18:13 14.67542 -17.07062 295 ft 13 kts 112°
2026-04-25 18:13 14.67502 -17.06987 294 ft 10 kts 158°
2026-04-25 18:13 14.67428 -17.06977 293 ft 15 kts 162°
2026-04-25 18:14 14.67252 -17.06863 296 ft 13 kts 147°
2026-04-25 18:14 14.67224 -17.06844 293 ft 1 kts 148°
2026-04-25 18:14 14.67220 -17.06842 295 ft 0 kts 148°